BEIDOU-2 G8

Last updated on Thu Jul 03 2025 00:02:48 GMT+0000 (Coordinated Universal Time)

1 44231U 19027A 25183.63784204 -.00000241 00000+0 00000+0 0 9992 2 44231 1.7300 75.1943 0003751 254.5132 325.3058 1.00269922 22577
UTC large
Height (km)
Speed (km/s)
/
Latitude / Longitude
Inclination (degrees)
Orbital Period (minutes)
Azimuth
Elevation
Range (km)
Doppler Factor

Next 0 passes for location: London (51.5072 / 0.1276)

Sorry there are no passes over London.